GBKIJ EGHN-EGKA

Flight info

Callsign GBKIJ
Flight time 0h 26m
Altitude 2500
Route VFR
Aircraft C172/L-SFG/C

Departure

Time 2026-04-27 21:14
Airport Isle of Wight/Sandown Airport (EGHN)

Arrival

Time 2026-04-27 21:41
Airport Brighton City Airport (EGKA)
Time Latitude Longitude Altitude Speed Heading
2026-04-27 20:59 50.64966 -1.18621 50 ft 0 kts 45°
2026-04-27 21:12 50.64966 -1.18620 50 ft 1 kts 45°
2026-04-27 21:12 50.64991 -1.18638 49 ft 9 kts 281°
2026-04-27 21:12 50.64971 -1.18701 53 ft 6 kts 310°
2026-04-27 21:12 50.64976 -1.18712 53 ft 3 kts 299°
2026-04-27 21:13 50.65014 -1.18698 51 ft 9 kts 46°
2026-04-27 21:13 50.65094 -1.18550 47 ft 38 kts 46°
2026-04-27 21:13 50.65377 -1.18096 73 ft 71 kts 45°
2026-04-27 21:13 50.65731 -1.17535 221 ft 73 kts 46°
2026-04-27 21:14 50.66083 -1.16933 374 ft 76 kts 46°
2026-04-27 21:14 50.66434 -1.16341 563 ft 71 kts 43°
2026-04-27 21:14 50.66891 -1.16204 718 ft 71 kts 333°
2026-04-27 21:14 50.67236 -1.16823 834 ft 84 kts 306°
2026-04-27 21:15 50.67651 -1.17540 950 ft 92 kts 325°
2026-04-27 21:15 50.68161 -1.18179 1047 ft 94 kts 326°
2026-04-27 21:15 50.68669 -1.18828 1184 ft 95 kts 326°
2026-04-27 21:15 50.69185 -1.19508 1339 ft 98 kts 326°
2026-04-27 21:16 50.69529 -1.19973 1427 ft 98 kts 326°
2026-04-27 21:16 50.70039 -1.20680 1561 ft 98 kts 326°
2026-04-27 21:16 50.70715 -1.21625 1765 ft 99 kts 326°
2026-04-27 21:16 50.71064 -1.22116 1859 ft 100 kts 326°
2026-04-27 21:17 50.71588 -1.22848 1993 ft 101 kts 327°
2026-04-27 21:17 50.72108 -1.23580 2117 ft 101 kts 327°
2026-04-27 21:17 50.72633 -1.24321 2227 ft 101 kts 327°
2026-04-27 21:17 50.73206 -1.24838 2333 ft 91 kts 359°
2026-04-27 21:18 50.73773 -1.24594 2442 ft 84 kts 38°
2026-04-27 21:18 50.74120 -1.23835 2491 ft 88 kts 56°
2026-04-27 21:18 50.74445 -1.22988 2498 ft 92 kts 54°
2026-04-27 21:18 50.74791 -1.22115 2496 ft 95 kts 54°
2026-04-27 21:19 50.75152 -1.21235 2498 ft 96 kts 53°
2026-04-27 21:19 50.75521 -1.20350 2498 ft 97 kts 53°
2026-04-27 21:19 50.75894 -1.19464 2496 ft 97 kts 53°
2026-04-27 21:20 50.76640 -1.17699 2494 ft 96 kts 53°
2026-04-27 21:20 50.77012 -1.16821 2496 ft 96 kts 53°
2026-04-27 21:20 50.77384 -1.15942 2500 ft 96 kts 54°
2026-04-27 21:20 50.77756 -1.15062 2499 ft 96 kts 53°
2026-04-27 21:21 50.78129 -1.14177 2505 ft 97 kts 53°
2026-04-27 21:21 50.78506 -1.13286 2502 ft 98 kts 53°
2026-04-27 21:21 50.78884 -1.12390 2508 ft 99 kts 53°
2026-04-27 21:21 50.79266 -1.11484 2499 ft 99 kts 53°
2026-04-27 21:22 50.79597 -1.10531 2494 ft 100 kts 68°
2026-04-27 21:22 50.79784 -1.09465 2498 ft 101 kts 70°
2026-04-27 21:22 50.79963 -1.08410 2495 ft 100 kts 70°
2026-04-27 21:22 50.80141 -1.07345 2490 ft 100 kts 70°
2026-04-27 21:23 50.80318 -1.06291 2494 ft 99 kts 70°
2026-04-27 21:23 50.80495 -1.05244 2494 ft 99 kts 70°
2026-04-27 21:23 50.80674 -1.04196 2498 ft 99 kts 70°
2026-04-27 21:23 50.80854 -1.03149 2497 ft 98 kts 70°
2026-04-27 21:24 50.81032 -1.02103 2498 ft 98 kts 70°
2026-04-27 21:24 50.81210 -1.01060 2497 ft 98 kts 70°
2026-04-27 21:24 50.81388 -1.00018 2496 ft 98 kts 70°
2026-04-27 21:24 50.81565 -0.98976 2498 ft 98 kts 70°
2026-04-27 21:25 50.81742 -0.97932 2500 ft 98 kts 70°
2026-04-27 21:25 50.81918 -0.96886 2505 ft 99 kts 70°
2026-04-27 21:25 50.82095 -0.95840 2499 ft 100 kts 70°
2026-04-27 21:25 50.82276 -0.94778 2492 ft 100 kts 70°
2026-04-27 21:26 50.82456 -0.93723 2490 ft 99 kts 71°
2026-04-27 21:26 50.82636 -0.92652 2496 ft 102 kts 71°
2026-04-27 21:26 50.82822 -0.91562 2497 ft 103 kts 71°
2026-04-27 21:26 50.83009 -0.90468 2493 ft 103 kts 71°
2026-04-27 21:27 50.83195 -0.89369 2497 ft 104 kts 71°
2026-04-27 21:27 50.83380 -0.88264 2495 ft 104 kts 71°
2026-04-27 21:27 50.83568 -0.87155 2498 ft 104 kts 71°
2026-04-27 21:27 50.83753 -0.86060 2494 ft 105 kts 71°
2026-04-27 21:28 50.83941 -0.84941 2508 ft 106 kts 71°
2026-04-27 21:28 50.84132 -0.83802 2521 ft 109 kts 72°
2026-04-27 21:28 50.84331 -0.82617 2526 ft 114 kts 72°
2026-04-27 21:28 50.84535 -0.81399 2501 ft 114 kts 72°
2026-04-27 21:29 50.84739 -0.80197 2479 ft 112 kts 71°
2026-04-27 21:29 50.84937 -0.79022 2482 ft 110 kts 71°
2026-04-27 21:29 50.85131 -0.77870 2486 ft 108 kts 72°
2026-04-27 21:29 50.85321 -0.76729 2483 ft 107 kts 72°
2026-04-27 21:30 50.85454 -0.75579 2476 ft 108 kts 88°
2026-04-27 21:30 50.85273 -0.74413 2491 ft 110 kts 102°
2026-04-27 21:30 50.85050 -0.73257 2496 ft 110 kts 103°
2026-04-27 21:30 50.84818 -0.72100 2498 ft 111 kts 102°
2026-04-27 21:31 50.84586 -0.70937 2495 ft 111 kts 103°
2026-04-27 21:31 50.84354 -0.69771 2497 ft 111 kts 102°
2026-04-27 21:31 50.84122 -0.68601 2487 ft 111 kts 102°
2026-04-27 21:31 50.83897 -0.67454 2490 ft 110 kts 102°
2026-04-27 21:32 50.83669 -0.66297 2496 ft 111 kts 102°
2026-04-27 21:32 50.83440 -0.65135 2493 ft 111 kts 102°
2026-04-27 21:32 50.83211 -0.63969 2492 ft 111 kts 102°
2026-04-27 21:32 50.82982 -0.62800 2491 ft 111 kts 102°
2026-04-27 21:33 50.82752 -0.61628 2489 ft 111 kts 103°
2026-04-27 21:33 50.82524 -0.60465 2494 ft 111 kts 102°
2026-04-27 21:33 50.82295 -0.59297 2486 ft 111 kts 102°
2026-04-27 21:33 50.82065 -0.58130 2490 ft 111 kts 102°
2026-04-27 21:34 50.81839 -0.56978 2495 ft 111 kts 103°
2026-04-27 21:34 50.81608 -0.55811 2501 ft 111 kts 102°
2026-04-27 21:34 50.81378 -0.54647 2499 ft 111 kts 103°
2026-04-27 21:34 50.81149 -0.53479 2500 ft 111 kts 103°
2026-04-27 21:35 50.80918 -0.52312 2502 ft 112 kts 103°
2026-04-27 21:35 50.80685 -0.51134 2504 ft 113 kts 103°
2026-04-27 21:35 50.80450 -0.49946 2503 ft 114 kts 103°
2026-04-27 21:35 50.80207 -0.48718 2290 ft 128 kts 103°
2026-04-27 21:36 50.79940 -0.47378 2164 ft 126 kts 103°
2026-04-27 21:36 50.79678 -0.46068 2062 ft 124 kts 103°
2026-04-27 21:36 50.79430 -0.44775 1951 ft 122 kts 98°
2026-04-27 21:36 50.79373 -0.43475 1893 ft 115 kts 82°
2026-04-27 21:37 50.79461 -0.42237 1858 ft 112 kts 79°
2026-04-27 21:37 50.79580 -0.41019 1770 ft 112 kts 75°
2026-04-27 21:37 50.79727 -0.39812 1704 ft 113 kts 76°
2026-04-27 21:37 50.79891 -0.38566 1585 ft 118 kts 74°
2026-04-27 21:38 50.80043 -0.37366 1496 ft 105 kts 76°
2026-04-27 21:38 50.80174 -0.36242 1393 ft 104 kts 76°
2026-04-27 21:38 50.80313 -0.35125 1338 ft 102 kts 76°
2026-04-27 21:38 50.80366 -0.34003 1275 ft 102 kts 83°
2026-04-27 21:39 50.80425 -0.32896 1170 ft 100 kts 75°
2026-04-27 21:39 50.80658 -0.31960 1085 ft 82 kts 54°
2026-04-27 21:39 50.81050 -0.31358 936 ft 80 kts 29°
2026-04-27 21:39 50.81568 -0.31000 792 ft 81 kts 23°
2026-04-27 21:40 50.82095 -0.30654 618 ft 83 kts 20°
2026-04-27 21:40 50.82651 -0.30306 334 ft 89 kts 19°
2026-04-27 21:40 50.83239 -0.29942 32 ft 89 kts 23°
2026-04-27 21:40 50.83690 -0.29654 7 ft 55 kts 21°
2026-04-27 21:41 50.83917 -0.29511 5 ft 18 kts 22°
2026-04-27 21:41 50.83989 -0.29425 3 ft 11 kts 102°
2026-04-27 21:41 50.83960 -0.29331 4 ft 10 kts 159°
2026-04-27 21:41 50.83883 -0.29336 4 ft 12 kts 178°
2026-04-27 21:42 50.83801 -0.29257 4 ft 17 kts 123°
2026-04-27 21:42 50.83727 -0.29092 4 ft 20 kts 126°
2026-04-27 21:42 50.83647 -0.28908 5 ft 20 kts 125°
2026-04-27 21:42 50.83556 -0.28813 3 ft 14 kts 181°
2026-04-27 21:43 50.83502 -0.28893 4 ft 8 kts 234°
2026-04-27 21:43 50.83455 -0.28895 4 ft 6 kts 167°
2026-04-27 21:43 50.83441 -0.28912 4 ft 0 kts 254°